Location: Boss Branch
(32.3799°N, 97.2508°W)
Time: 14:37:49
(UTC+00:00)

deb Explorer IX - Pass Details

Date: 14 November 2024
Orbit: 492 x 761 km, 38.7° (Epoch: 01 December)

Event Time Altitude Azimuth Distance (km) Brightness Sun altitude
Rises 02:41:19 0° 284° (WNW) 3,120 ? -40.6°
Reaches altitude 10° 02:43:48 10° 291° (WNW) 2,240 ? -41.1°
Enters shadow 02:44:32 14° 295° (WNW) 1,998 ? -41.3°
